TimeMST,TemperatureF,Dew PointF,Humidity,Sea Level PressureIn,VisibilityMPH,Wind Direction,Wind SpeedMPH,Gust SpeedMPH,PrecipitationIn,Events,Conditions,WindDirDegrees,DateUTC
12:15 AM,46.4,21.2,37,30.29,10.0,SW,21.9,27.6,N/A,,Unknown,230,2013-11-11 07:15:00
12:35 AM,44.6,21.2,39,30.30,10.0,SW,16.1,21.9,N/A,,Unknown,230,2013-11-11 07:35:00
12:55 AM,44.6,19.4,37,30.29,10.0,SW,21.9,-,N/A,,Unknown,230,2013-11-11 07:55:00
1:15 AM,44.6,19.4,37,30.29,10.0,SW,19.6,25.3,N/A,,Unknown,230,2013-11-11 08:15:00
1:35 AM,46.4,19.4,34,30.29,10.0,SW,27.6,36.8,N/A,,Unknown,230,2013-11-11 08:35:00
1:55 AM,44.6,19.4,37,30.28,10.0,WSW,31.1,38.0,N/A,,Unknown,240,2013-11-11 08:55:00
2:15 AM,46.4,17.6,32,30.28,10.0,WSW,29.9,35.7,N/A,,Unknown,240,2013-11-11 09:15:00
2:35 AM,46.4,17.6,32,30.29,10.0,WSW,29.9,40.3,N/A,,Unknown,240,2013-11-11 09:35:00
2:55 AM,46.4,17.6,32,30.29,10.0,WSW,25.3,35.7,N/A,,Unknown,240,2013-11-11 09:55:00
3:15 AM,44.6,17.6,34,30.29,10.0,WSW,19.6,-,N/A,,Unknown,250,2013-11-11 10:15:00
3:35 AM,46.4,15.8,29,30.29,10.0,SW,23.0,39.1,N/A,,Unknown,230,2013-11-11 10:35:00
3:55 AM,44.6,14.0,29,30.29,10.0,SW,25.3,33.4,N/A,,Unknown,230,2013-11-11 10:55:00
4:15 AM,46.4,14.0,27,30.29,10.0,WSW,28.8,38.0,N/A,,Unknown,240,2013-11-11 11:15:00
4:35 AM,42.8,15.8,34,30.30,10.0,WSW,25.3,-,N/A,,Unknown,240,2013-11-11 11:35:00
4:55 AM,42.8,17.6,36,30.30,10.0,WSW,17.3,-,N/A,,Unknown,240,2013-11-11 11:55:00
5:15 AM,42.8,17.6,36,30.31,10.0,WSW,18.4,23.0,N/A,,Unknown,250,2013-11-11 12:15:00
5:35 AM,42.8,17.6,36,30.32,10.0,WSW,18.4,24.2,N/A,,Unknown,240,2013-11-11 12:35:00
5:55 AM,42.8,19.4,39,30.31,10.0,WSW,18.4,-,N/A,,Unknown,240,2013-11-11 12:55:00
6:15 AM,37.4,23.0,56,30.33,10.0,West,16.1,-,N/A,,Unknown,260,2013-11-11 13:15:00
6:35 AM,39.2,21.2,49,30.33,10.0,WSW,18.4,-,N/A,,Unknown,250,2013-11-11 13:35:00
6:55 AM,39.2,21.2,49,30.34,10.0,WNW,6.9,-,N/A,,Unknown,290,2013-11-11 13:55:00
7:15 AM,33.8,26.6,75,30.35,10.0,NW,8.1,-,N/A,,Unknown,310,2013-11-11 14:15:00
7:35 AM,33.8,28.4,81,30.35,10.0,NNW,11.5,-,N/A,,Unknown,330,2013-11-11 14:35:00
7:55 AM,32.0,28.4,87,30.36,10.0,NW,11.5,-,N/A,,Unknown,320,2013-11-11 14:55:00
8:15 AM,30.2,30.2,100,30.37,10.0,NW,10.4,-,N/A,,Unknown,320,2013-11-11 15:15:00
8:35 AM,32.0,28.4,87,30.38,10.0,NW,12.7,-,N/A,,Unknown,320,2013-11-11 15:35:00
8:55 AM,33.8,26.6,75,30.40,10.0,NNW,13.8,-,N/A,,Unknown,330,2013-11-11 15:55:00
9:15 AM,33.8,26.6,75,30.40,10.0,NNW,9.2,-,N/A,,Unknown,330,2013-11-11 16:15:00
9:35 AM,35.6,26.6,70,30.40,10.0,NNW,11.5,-,N/A,,Unknown,330,2013-11-11 16:35:00
9:55 AM,35.6,26.6,70,30.41,10.0,NNW,9.2,-,N/A,,Unknown,340,2013-11-11 16:55:00
10:15 AM,35.6,28.4,75,30.41,10.0,NW,9.2,-,N/A,,Unknown,320,2013-11-11 17:15:00
10:35 AM,32.0,30.2,93,30.42,10.0,NW,10.4,-,N/A,,Unknown,310,2013-11-11 17:35:00
10:55 AM,32.0,28.4,87,30.42,10.0,NW,11.5,-,N/A,,Unknown,320,2013-11-11 17:55:00
11:15 AM,32.0,26.6,80,30.43,10.0,NW,12.7,-,N/A,,Unknown,320,2013-11-11 18:15:00
11:35 AM,33.8,28.4,81,30.43,10.0,NW,12.7,-,N/A,,Unknown,320,2013-11-11 18:35:00
11:55 AM,33.8,28.4,81,30.43,10.0,NW,12.7,-,N/A,,Unknown,320,2013-11-11 18:55:00
12:15 PM,33.8,28.4,81,30.43,10.0,NW,12.7,-,N/A,,Unknown,310,2013-11-11 19:15:00
12:35 PM,33.8,28.4,81,30.43,10.0,NW,13.8,-,N/A,,Unknown,310,2013-11-11 19:35:00
12:55 PM,33.8,30.2,87,30.42,10.0,NW,12.7,-,N/A,,Unknown,310,2013-11-11 19:55:00
1:15 PM,33.8,30.2,87,30.42,10.0,WNW,11.5,-,N/A,,Unknown,300,2013-11-11 20:15:00
1:35 PM,35.6,30.2,81,30.42,10.0,NNW,12.7,-,N/A,,Unknown,330,2013-11-11 20:35:00
1:55 PM,35.6,30.2,81,30.42,10.0,NW,13.8,-,N/A,,Unknown,320,2013-11-11 20:55:00
2:15 PM,35.6,30.2,81,30.42,10.0,NW,13.8,-,N/A,,Unknown,320,2013-11-11 21:15:00
2:35 PM,33.8,30.2,87,30.43,10.0,NW,15.0,-,N/A,,Unknown,320,2013-11-11 21:35:00
2:55 PM,32.0,30.2,93,30.43,10.0,NW,16.1,-,N/A,,Unknown,320,2013-11-11 21:55:00
3:15 PM,32.0,30.2,93,30.44,10.0,NW,15.0,-,N/A,,Unknown,310,2013-11-11 22:15:00
3:35 PM,32.0,30.2,93,30.45,10.0,NW,18.4,-,N/A,,Unknown,310,2013-11-11 22:35:00
3:55 PM,32.0,28.4,87,30.45,10.0,NW,18.4,-,N/A,,Unknown,320,2013-11-11 22:55:00
4:15 PM,30.2,28.4,93,30.47,10.0,NW,19.6,-,N/A,,Unknown,310,2013-11-11 23:15:00
4:35 PM,30.2,28.4,93,30.48,7.0,NW,19.6,-,N/A,,Unknown,310,2013-11-11 23:35:00
4:55 PM,30.2,28.4,93,30.49,5.0,NW,20.7,-,N/A,,Mist,310,2013-11-11 23:55:00
5:15 PM,30.2,28.4,93,30.50,0.5,NW,20.7,-,N/A,Fog,Light Freezing Fog,310,2013-11-12 00:15:00
5:35 PM,30.2,30.2,100,30.51,10.0,NW,18.4,-,N/A,,Unknown,310,2013-11-12 00:35:00
5:55 PM,30.2,30.2,100,30.52,10.0,NW,16.1,-,N/A,,Unknown,310,2013-11-12 00:55:00
6:15 PM,30.2,30.2,100,30.54,10.0,WNW,13.8,-,N/A,,Unknown,290,2013-11-12 01:15:00
6:35 PM,30.2,30.2,100,30.54,10.0,WNW,15.0,-,N/A,,Unknown,300,2013-11-12 01:35:00
6:55 PM,32.0,30.2,93,30.55,10.0,NW,15.0,-,N/A,,Unknown,320,2013-11-12 01:55:00
7:15 PM,32.0,30.2,93,30.55,10.0,NW,16.1,-,N/A,,Unknown,320,2013-11-12 02:15:00
7:35 PM,32.0,30.2,93,30.55,10.0,NW,13.8,-,N/A,,Unknown,320,2013-11-12 02:35:00
7:55 PM,32.0,30.2,93,30.56,10.0,NW,6.9,-,N/A,,Unknown,310,2013-11-12 02:55:00
8:15 PM,32.0,30.2,93,30.57,10.0,WNW,6.9,-,N/A,,Unknown,300,2013-11-12 03:15:00
8:35 PM,33.8,30.2,87,30.58,10.0,West,6.9,-,N/A,,Unknown,280,2013-11-12 03:35:00
8:55 PM,33.8,30.2,87,30.59,10.0,West,5.8,-,N/A,,Unknown,280,2013-11-12 03:55:00
9:15 PM,33.8,30.2,87,30.59,10.0,West,4.6,-,N/A,,Unknown,270,2013-11-12 04:15:00
9:35 PM,33.8,30.2,87,30.59,10.0,South,5.8,-,N/A,,Unknown,190,2013-11-12 04:35:00
9:55 PM,32.0,30.2,93,30.59,10.0,SSE,5.8,-,N/A,,Unknown,160,2013-11-12 04:55:00
10:15 PM,32.0,30.2,93,30.60,10.0,South,10.4,-,N/A,,Unknown,190,2013-11-12 05:15:00
10:35 PM,32.0,30.2,93,30.60,10.0,SE,6.9,-,N/A,,Unknown,140,2013-11-12 05:35:00
10:55 PM,32.0,30.2,93,30.60,10.0,South,10.4,-,N/A,,Unknown,190,2013-11-12 05:55:00
11:15 PM,32.0,28.4,87,30.60,10.0,South,11.5,-,N/A,,Unknown,190,2013-11-12 06:15:00
11:35 PM,32.0,30.2,93,30.61,10.0,South,10.4,-,N/A,,Unknown,190,2013-11-12 06:35:00
11:55 PM,30.2,28.4,93,30.61,10.0,South,10.4,-,N/A,,Unknown,170,2013-11-12 06:55:00